IRIDIUM 141 (43077 NORAD) Tracking and Keplerian Element Data

This shows tracking and keplerian element data for the satellite.

Feedback or suggestion? Click here.




ElementValue
Catalog43077
NameIRIDIUM 141
Epoch Orbit431
Epoch Day21.46653338
Epoch Year2018
RAAN164.4544
Inclination86.5287
Eccentricity0.0001645
Argument of Perigee106.203
Mean Anonmoly253.936
Mean Motion14.56961285
Decay Rate9.9E-07
L11 43077U 17083H 18021.46653338 .00000099 00000-0 17202-4 0 9994
L22 43077 86.5287 164.4544 0001645 106.2030 253.9360 14.56961285 4318

Live tracking and technical data element details for IRIDIUM 141 (NORAD 43077). IRIDIUM 141 can be tracked NOW for your location showing map with azimuth and elevation plus other details from your city location.

Track the satellite on the map from your city or location and see movement details for azimuth, elevation, latitude, longitude, range, height, and movement on the map or in text.







IsCatalogInMostPopularTable: catalog: 43077, numindb: 98
Update: records affected: 1



GetName: 43077 IRIDIUM 141

Hit Count: updated at: Fri, 20 Jul 2018 06:52:31 GMT